SRR4PR LOWW-EDDK

Flight info

Callsign SRR4PR
Flight time 1h 6m
Altitude 30000
Route BUWUT1C/29 BUWUT DCT DITIS DCT RAPET T843 VELIS DCT MASEK T841 ERNEP ERNEP1G
Aircraft B77L/H-SDE1E2E3FGHIJ2J3J4J5M1RWXY/LB1D1

Departure

Time 2026-04-22 18:54
Airport Vienna International Airport (LOWW)

Arrival

Time 2026-04-22 20:00
Airport Cologne Bonn Airport (EDDK)
Time Latitude Longitude Altitude Speed Heading
2026-04-22 18:24 48.12219 16.54737 613 ft 0 kts 26°
2026-04-22 18:41 48.12218 16.54737 614 ft 2 kts 26°
2026-04-22 18:41 48.12196 16.54720 631 ft 4 kts 30°
2026-04-22 18:41 48.12173 16.54698 629 ft 4 kts 37°
2026-04-22 18:42 48.12153 16.54672 629 ft 4 kts 57°
2026-04-22 18:42 48.12147 16.54641 629 ft 2 kts 114°
2026-04-22 18:42 48.12147 16.54638 629 ft 0 kts 116°
2026-04-22 18:44 48.12146 16.54642 629 ft 3 kts 116°
2026-04-22 18:44 48.12109 16.54755 625 ft 18 kts 116°
2026-04-22 18:45 48.12052 16.54928 625 ft 17 kts 116°
2026-04-22 18:45 48.12003 16.55077 624 ft 14 kts 116°
2026-04-22 18:45 48.11954 16.55181 627 ft 8 kts 159°
2026-04-22 18:45 48.11903 16.55176 627 ft 11 kts 176°
2026-04-22 18:46 48.11865 16.55250 621 ft 15 kts 110°
2026-04-22 18:46 48.11800 16.55461 623 ft 21 kts 116°
2026-04-22 18:46 48.11740 16.55645 624 ft 18 kts 116°
2026-04-22 18:46 48.11689 16.55802 622 ft 15 kts 116°
2026-04-22 18:47 48.11646 16.55933 627 ft 14 kts 116°
2026-04-22 18:47 48.11606 16.56057 625 ft 12 kts 116°
2026-04-22 18:47 48.11572 16.56159 624 ft 10 kts 115°
2026-04-22 18:47 48.11548 16.56235 628 ft 4 kts 116°
2026-04-22 18:48 48.11547 16.56238 627 ft 0 kts 116°
2026-04-22 18:48 48.11546 16.56239 627 ft 1 kts 116°
2026-04-22 18:48 48.11516 16.56329 626 ft 17 kts 116°
2026-04-22 18:48 48.11456 16.56512 625 ft 21 kts 116°
2026-04-22 18:49 48.11388 16.56724 620 ft 22 kts 114°
2026-04-22 18:49 48.11327 16.56908 624 ft 21 kts 115°
2026-04-22 18:49 48.11263 16.57113 627 ft 17 kts 116°
2026-04-22 18:49 48.11211 16.57267 625 ft 15 kts 117°
2026-04-22 18:50 48.11172 16.57385 620 ft 9 kts 116°
2026-04-22 18:50 48.11148 16.57460 624 ft 7 kts 116°
2026-04-22 18:50 48.11141 16.57483 626 ft 0 kts 116°
2026-04-22 18:51 48.11129 16.57519 625 ft 10 kts 116°
2026-04-22 18:51 48.11097 16.57611 629 ft 9 kts 128°
2026-04-22 18:51 48.11029 16.57631 614 ft 9 kts 197°
2026-04-22 18:52 48.11011 16.57619 616 ft 0 kts 204°
2026-04-22 18:52 48.11007 16.57617 618 ft 4 kts 205°
2026-04-22 18:52 48.10948 16.57573 626 ft 7 kts 215°
2026-04-22 18:52 48.10932 16.57485 622 ft 8 kts 285°
2026-04-22 18:53 48.10945 16.57444 623 ft 0 kts 295°
2026-04-22 18:53 48.10952 16.57420 617 ft 14 kts 295°
2026-04-22 18:53 48.11115 16.56921 619 ft 92 kts 296°
2026-04-22 18:54 48.11502 16.55732 627 ft 159 kts 296°
2026-04-22 18:54 48.12033 16.54076 902 ft 188 kts 296°
2026-04-22 18:54 48.12487 16.52187 1386 ft 204 kts 274°
2026-04-22 18:54 48.12210 16.50038 2025 ft 220 kts 251°
2026-04-22 18:55 48.11240 16.48142 2455 ft 249 kts 218°
2026-04-22 18:55 48.09553 16.47229 2785 ft 269 kts 189°
2026-04-22 18:55 48.07738 16.46498 3212 ft 275 kts 215°
2026-04-22 18:55 48.06474 16.44430 3898 ft 269 kts 251°
2026-04-22 18:56 48.05882 16.41814 4593 ft 268 kts 255°
2026-04-22 18:56 48.05211 16.39143 4967 ft 282 kts 252°
2026-04-22 18:56 48.04461 16.36444 5027 ft 275 kts 256°
2026-04-22 18:56 48.04329 16.33706 5066 ft 262 kts 289°
2026-04-22 18:57 48.04958 16.31191 5277 ft 259 kts 295°
2026-04-22 18:57 48.05593 16.28673 5698 ft 259 kts 294°
2026-04-22 18:57 48.06195 16.26135 6508 ft 259 kts 293°
2026-04-22 18:57 48.06784 16.23599 7251 ft 263 kts 292°
2026-04-22 18:58 48.07375 16.20988 7974 ft 268 kts 292°
2026-04-22 18:58 48.07967 16.18325 8733 ft 271 kts 292°
2026-04-22 18:58 48.08566 16.15626 9405 ft 276 kts 292°
2026-04-22 18:58 48.09172 16.12877 10144 ft 280 kts 292°
2026-04-22 18:59 48.09784 16.10085 10801 ft 284 kts 291°
2026-04-22 18:59 48.10403 16.07258 11496 ft 289 kts 292°
2026-04-22 18:59 48.11030 16.04381 12271 ft 293 kts 292°
2026-04-22 18:59 48.11665 16.01459 13051 ft 298 kts 292°
2026-04-22 19:00 48.12104 15.99437 13429 ft 308 kts 292°
2026-04-22 19:00 48.13241 15.95378 13625 ft 329 kts 311°
2026-04-22 19:00 48.14997 15.93127 13835 ft 342 kts 336°
2026-04-22 19:00 48.17237 15.91725 14068 ft 358 kts 341°
2026-04-22 19:01 48.19591 15.90348 14664 ft 368 kts 341°
2026-04-22 19:01 48.22003 15.88928 15392 ft 374 kts 341°
2026-04-22 19:01 48.24439 15.87482 16192 ft 378 kts 341°
2026-04-22 19:01 48.26897 15.86014 17011 ft 382 kts 341°
2026-04-22 19:02 48.29380 15.84523 17806 ft 386 kts 341°
2026-04-22 19:02 48.31892 15.83009 18567 ft 391 kts 341°
2026-04-22 19:02 48.34435 15.81473 19208 ft 396 kts 341°
2026-04-22 19:02 48.37009 15.79914 19854 ft 401 kts 342°
2026-04-22 19:03 48.39611 15.78335 20495 ft 405 kts 342°
2026-04-22 19:03 48.42211 15.76756 21109 ft 410 kts 342°
2026-04-22 19:03 48.44905 15.75117 21730 ft 415 kts 342°
2026-04-22 19:03 48.47566 15.73497 22318 ft 420 kts 342°
2026-04-22 19:04 48.50299 15.71832 22890 ft 425 kts 342°
2026-04-22 19:04 48.53091 15.70128 23487 ft 430 kts 342°
2026-04-22 19:04 48.55874 15.68427 24033 ft 435 kts 343°
2026-04-22 19:04 48.58659 15.66723 24522 ft 439 kts 343°
2026-04-22 19:05 48.61509 15.64978 24972 ft 444 kts 343°
2026-04-22 19:05 48.64394 15.63211 25406 ft 450 kts 343°
2026-04-22 19:05 48.67263 15.61279 25865 ft 458 kts 336°
2026-04-22 19:05 48.69899 15.58416 26227 ft 476 kts 323°
2026-04-22 19:06 48.72120 15.54594 26626 ft 492 kts 309°
2026-04-22 19:06 48.73844 15.50049 27081 ft 501 kts 302°
2026-04-22 19:06 48.75451 15.45328 27488 ft 506 kts 302°
2026-04-22 19:07 48.78804 15.35890 28599 ft 509 kts 303°
2026-04-22 19:07 48.80551 15.31226 29209 ft 508 kts 306°
2026-04-22 19:07 48.82518 15.26799 29801 ft 505 kts 311°
2026-04-22 19:07 48.84602 15.22499 30306 ft 507 kts 312°
2026-04-22 19:08 48.86707 15.18154 30273 ft 512 kts 311°
2026-04-22 19:08 48.90838 15.09423 30259 ft 505 kts 311°
2026-04-22 19:09 48.94998 15.00841 30268 ft 503 kts 312°
2026-04-22 19:09 48.98475 14.93757 30269 ft 503 kts 312°
2026-04-22 19:10 49.03367 14.83741 30269 ft 504 kts 311°
2026-04-22 19:10 49.07537 14.75135 30268 ft 505 kts 311°
2026-04-22 19:11 49.11686 14.66533 30271 ft 506 kts 311°
2026-04-22 19:11 49.15852 14.57867 30285 ft 506 kts 311°
2026-04-22 19:12 49.20018 14.49176 30277 ft 507 kts 311°
2026-04-22 19:12 49.24183 14.40457 30282 ft 507 kts 310°
2026-04-22 19:13 49.27635 14.33212 30268 ft 506 kts 310°
2026-04-22 19:13 49.32445 14.23081 30277 ft 505 kts 310°
2026-04-22 19:14 49.35875 14.15833 30295 ft 504 kts 310°
2026-04-22 19:14 49.39987 14.07119 30298 ft 503 kts 310°
2026-04-22 19:15 49.44083 13.98412 30301 ft 503 kts 310°
2026-04-22 19:15 49.48175 13.89684 30302 ft 502 kts 309°
2026-04-22 19:16 49.52260 13.80943 30304 ft 502 kts 309°
2026-04-22 19:16 49.56331 13.72202 30302 ft 503 kts 309°
2026-04-22 19:17 49.60403 13.63433 30300 ft 503 kts 309°
2026-04-22 19:17 49.64464 13.54654 30289 ft 502 kts 309°
2026-04-22 19:18 49.68508 13.45883 30299 ft 502 kts 309°
2026-04-22 19:18 49.72528 13.37138 30293 ft 502 kts 309°
2026-04-22 19:19 49.76564 13.28329 30293 ft 502 kts 309°
2026-04-22 19:19 49.80598 13.19495 30297 ft 502 kts 309°
2026-04-22 19:20 49.84616 13.10666 30315 ft 502 kts 309°
2026-04-22 19:20 49.88631 13.01813 30305 ft 502 kts 308°
2026-04-22 19:21 49.92645 12.92936 30290 ft 502 kts 308°
2026-04-22 19:21 49.96641 12.84067 30290 ft 501 kts 308°
2026-04-22 19:22 50.00598 12.75256 30297 ft 500 kts 308°
2026-04-22 19:22 50.04560 12.66405 30304 ft 498 kts 308°
2026-04-22 19:23 50.08516 12.57538 30315 ft 498 kts 308°
2026-04-22 19:23 50.12457 12.48678 30319 ft 497 kts 308°
2026-04-22 19:24 50.16371 12.39784 30323 ft 498 kts 305°
2026-04-22 19:24 50.19454 12.30066 30338 ft 502 kts 292°
2026-04-22 19:25 50.21377 12.19560 30331 ft 504 kts 284°
2026-04-22 19:25 50.22982 12.08900 30324 ft 504 kts 284°
2026-04-22 19:26 50.24656 11.98265 30317 ft 504 kts 285°
2026-04-22 19:26 50.26316 11.87633 30319 ft 503 kts 284°
2026-04-22 19:27 50.27946 11.77003 30314 ft 503 kts 284°
2026-04-22 19:27 50.29573 11.66376 30321 ft 502 kts 284°
2026-04-22 19:28 50.31186 11.55749 30320 ft 502 kts 284°
2026-04-22 19:28 50.32779 11.45118 30332 ft 502 kts 284°
2026-04-22 19:29 50.34357 11.34530 30325 ft 501 kts 284°
2026-04-22 19:29 50.35936 11.23905 30349 ft 501 kts 284°
2026-04-22 19:30 50.37238 11.14977 30336 ft 502 kts 283°
2026-04-22 19:30 50.39018 11.02583 30341 ft 501 kts 283°
2026-04-22 19:31 50.40542 10.91928 30336 ft 500 kts 283°
2026-04-22 19:31 50.42059 10.81281 30339 ft 500 kts 283°
2026-04-22 19:32 50.43565 10.70627 30339 ft 499 kts 283°
2026-04-22 19:32 50.45097 10.60011 30336 ft 498 kts 283°
2026-04-22 19:33 50.46667 10.49579 30213 ft 487 kts 287°
2026-04-22 19:33 50.47732 10.44580 29908 ft 476 kts 293°
2026-04-22 19:33 50.49077 10.39914 29665 ft 464 kts 298°
2026-04-22 19:33 50.50468 10.35389 29458 ft 454 kts 298°
2026-04-22 19:34 50.51823 10.30962 29159 ft 446 kts 297°
2026-04-22 19:34 50.53151 10.26591 28749 ft 441 kts 297°
2026-04-22 19:34 50.54458 10.22257 28324 ft 436 kts 297°
2026-04-22 19:34 50.55746 10.17963 27894 ft 432 kts 297°
2026-04-22 19:35 50.57019 10.13699 27427 ft 430 kts 297°
2026-04-22 19:35 50.58286 10.09444 26883 ft 429 kts 297°
2026-04-22 19:35 50.59555 10.05172 26176 ft 433 kts 297°
2026-04-22 19:35 50.60831 10.00875 25680 ft 434 kts 297°
2026-04-22 19:36 50.62114 9.96539 25511 ft 439 kts 297°
2026-04-22 19:36 50.63413 9.92147 25365 ft 445 kts 297°
2026-04-22 19:36 50.64719 9.87719 25281 ft 445 kts 297°
2026-04-22 19:36 50.66018 9.83302 24864 ft 443 kts 297°
2026-04-22 19:37 50.67305 9.78919 24435 ft 439 kts 297°
2026-04-22 19:37 50.68580 9.74570 24002 ft 435 kts 297°
2026-04-22 19:37 50.69839 9.70272 23532 ft 430 kts 297°
2026-04-22 19:37 50.71090 9.65997 23033 ft 426 kts 297°
2026-04-22 19:38 50.72322 9.61773 22539 ft 423 kts 297°
2026-04-22 19:38 50.73564 9.57567 22345 ft 425 kts 298°
2026-04-22 19:38 50.74864 9.53429 22336 ft 425 kts 299°
2026-04-22 19:38 50.76200 9.49285 22304 ft 422 kts 300°
2026-04-22 19:39 50.77529 9.45179 22337 ft 420 kts 300°
2026-04-22 19:39 50.78859 9.41052 22329 ft 421 kts 299°
2026-04-22 19:39 50.80179 9.36930 22328 ft 421 kts 299°
2026-04-22 19:39 50.81497 9.32793 22336 ft 421 kts 299°
2026-04-22 19:40 50.82808 9.28658 22169 ft 419 kts 299°
2026-04-22 19:40 50.84106 9.24551 21733 ft 416 kts 299°
2026-04-22 19:40 50.85393 9.20470 21256 ft 413 kts 299°
2026-04-22 19:40 50.86669 9.16419 20786 ft 409 kts 299°
2026-04-22 19:41 50.87934 9.12397 20317 ft 406 kts 299°
2026-04-22 19:41 50.89170 9.08455 19666 ft 396 kts 299°
2026-04-22 19:41 50.90405 9.04520 19029 ft 401 kts 299°
2026-04-22 19:41 50.91632 9.00604 18547 ft 390 kts 299°
2026-04-22 19:42 50.92827 8.96778 17735 ft 385 kts 299°
2026-04-22 19:42 50.94011 8.92979 16861 ft 383 kts 299°
2026-04-22 19:42 50.95199 8.89230 16075 ft 379 kts 300°
2026-04-22 19:42 50.96383 8.85575 15362 ft 374 kts 300°
2026-04-22 19:43 50.98729 8.78331 13944 ft 365 kts 300°
2026-04-22 19:43 50.99895 8.74710 13613 ft 370 kts 299°
2026-04-22 19:43 51.01019 8.71057 13412 ft 367 kts 293°
2026-04-22 19:44 51.01492 8.67051 13359 ft 373 kts 271°
2026-04-22 19:44 51.01140 8.62979 13343 ft 370 kts 258°
2026-04-22 19:44 51.00581 8.58962 13352 ft 373 kts 260°
2026-04-22 19:44 51.00103 8.54910 13357 ft 374 kts 261°
2026-04-22 19:45 50.99651 8.50841 13338 ft 374 kts 262°
2026-04-22 19:45 50.99204 8.46777 13345 ft 373 kts 262°
2026-04-22 19:45 50.98753 8.42705 13358 ft 373 kts 261°
2026-04-22 19:45 50.98300 8.38641 13346 ft 374 kts 261°
2026-04-22 19:46 50.97843 8.34586 13344 ft 374 kts 261°
2026-04-22 19:46 50.97382 8.30520 13350 ft 373 kts 261°
2026-04-22 19:46 50.97025 8.26479 13222 ft 368 kts 270°
2026-04-22 19:46 50.97110 8.22445 12886 ft 365 kts 276°
2026-04-22 19:47 50.97319 8.18443 12440 ft 363 kts 277°
2026-04-22 19:47 50.97528 8.14514 11941 ft 362 kts 276°
2026-04-22 19:47 50.97663 8.11835 11597 ft 361 kts 276°
2026-04-22 19:47 50.97907 8.06578 10976 ft 358 kts 275°
2026-04-22 19:48 50.98073 8.02653 10528 ft 356 kts 275°
2026-04-22 19:48 50.98230 7.98730 10358 ft 358 kts 275°
2026-04-22 19:48 50.98391 7.94800 10355 ft 357 kts 276°
2026-04-22 19:48 50.98660 7.90891 10340 ft 356 kts 279°
2026-04-22 19:49 50.98992 7.87006 10336 ft 354 kts 279°
2026-04-22 19:49 50.99329 7.83199 10327 ft 342 kts 279°
2026-04-22 19:49 50.99650 7.79508 10325 ft 330 kts 279°
2026-04-22 19:49 50.99953 7.75962 10338 ft 326 kts 279°
2026-04-22 19:50 51.00254 7.72392 10246 ft 325 kts 279°
2026-04-22 19:50 51.00554 7.68799 9733 ft 329 kts 279°
2026-04-22 19:50 51.00854 7.65156 9121 ft 333 kts 279°
2026-04-22 19:50 51.01151 7.61537 8556 ft 335 kts 278°
2026-04-22 19:51 51.01450 7.57852 7970 ft 337 kts 278°
2026-04-22 19:51 51.01747 7.54157 7555 ft 336 kts 278°
2026-04-22 19:51 51.02046 7.50441 7391 ft 341 kts 278°
2026-04-22 19:51 51.02344 7.46705 7340 ft 338 kts 278°
2026-04-22 19:52 51.02634 7.43037 7332 ft 337 kts 278°
2026-04-22 19:52 51.02926 7.39336 7334 ft 338 kts 278°
2026-04-22 19:52 51.03217 7.35651 7315 ft 330 kts 278°
2026-04-22 19:52 51.03495 7.32116 7309 ft 313 kts 278°
2026-04-22 19:53 51.03757 7.28761 7309 ft 298 kts 278°
2026-04-22 19:53 51.04007 7.25556 7121 ft 292 kts 278°
2026-04-22 19:53 51.04172 7.23443 6885 ft 290 kts 278°
2026-04-22 19:53 51.04501 7.19210 6311 ft 290 kts 278°
2026-04-22 19:54 51.04744 7.16025 5975 ft 286 kts 277°
2026-04-22 19:54 51.04967 7.12909 5735 ft 279 kts 277°
2026-04-22 19:54 51.05175 7.09911 5413 ft 275 kts 277°
2026-04-22 19:54 51.05394 7.06894 4990 ft 274 kts 277°
2026-04-22 19:55 51.05453 7.03910 4637 ft 266 kts 258°
2026-04-22 19:55 51.04834 7.01250 4463 ft 244 kts 243°
2026-04-22 19:55 51.04129 6.98915 4170 ft 229 kts 243°
2026-04-22 19:55 51.03378 6.96781 3868 ft 218 kts 224°
2026-04-22 19:56 51.02148 6.95584 3607 ft 199 kts 188°
2026-04-22 19:56 51.00837 6.95504 3315 ft 187 kts 174°
2026-04-22 19:56 50.99547 6.95695 2988 ft 188 kts 160°
2026-04-22 19:56 50.98512 6.96859 2987 ft 182 kts 125°
2026-04-22 19:57 50.97730 6.98429 2865 ft 185 kts 128°
2026-04-22 19:57 50.96879 6.99950 2600 ft 181 kts 130°
2026-04-22 19:57 50.95992 7.01339 2401 ft 175 kts 133°
2026-04-22 19:57 50.95124 7.02618 2179 ft 168 kts 133°
2026-04-22 19:58 50.94261 7.03873 1940 ft 166 kts 133°
2026-04-22 19:58 50.93449 7.05050 1716 ft 153 kts 132°
2026-04-22 19:58 50.92694 7.06154 1489 ft 144 kts 131°
2026-04-22 19:58 50.91963 7.07219 1311 ft 143 kts 131°
2026-04-22 19:59 50.91471 7.07923 1176 ft 145 kts 135°
2026-04-22 20:00 50.87186 7.14159 252 ft 101 kts 137°
2026-04-22 20:00 50.86790 7.14727 271 ft 30 kts 139°
2026-04-22 20:01 50.86699 7.14646 271 ft 12 kts 245°
2026-04-22 20:01 50.86666 7.14499 268 ft 10 kts 262°
2026-04-22 20:01 50.86623 7.14357 266 ft 12 kts 262°
2026-04-22 20:01 50.86653 7.14257 265 ft 13 kts 313°
2026-04-22 20:02 50.86671 7.14228 264 ft 0 kts 315°
2026-04-22 20:02 50.86673 7.14225 264 ft 3 kts 315°
2026-04-22 20:03 50.86682 7.14210 264 ft 8 kts 316°
2026-04-22 20:03 50.86753 7.14135 260 ft 11 kts 339°
2026-04-22 20:03 50.86812 7.14078 259 ft 8 kts 321°
2026-04-22 20:03 50.86844 7.14034 259 ft 5 kts 313°
2026-04-22 20:04 50.86841 7.13971 259 ft 10 kts 236°
2026-04-22 20:04 50.86809 7.13914 259 ft 3 kts 227°
2026-04-22 20:04 50.86807 7.13911 259 ft 0 kts 227°